WA4FG Weather Reports


Display with metric or nautical units.
time (UTC)temp
F
wind
direction
speed
MPH
gust
MPH
rain 1hr
in
rain 24hr
in
rain mn
in
humidity
%
barometer
mb
20260904044411 79 105 0.0 0.0 0.00 0.00 0.00 91 1015.0
20260904042842 79 105 0.0 0.0 0.00 0.00 0.00 91 1015.0
20260904042339 79 105 0.0 0.0 0.00 0.00 0.00 91 1014.9
20260904040231 79 105 0.0 0.0 0.00 0.00 0.00 90 1015.0
20260904035729 80 105 0.0 0.0 0.00 0.00 0.00 90 1015.0
20260904035206 80 105 0.0 0.0 0.00 0.00 0.00 89 1015.0
20260904034704 80 105 0.0 0.0 0.00 0.00 0.00 89 1015.1
20260904033702 80 105 0.0 0.0 0.00 0.00 0.00 89 1015.2
20260904033204 80 105 0.0 0.0 0.00 0.00 0.00 89 1015.2
20260904032639 80 105 0.0 0.0 0.00 0.00 0.00 88 1015.3
20260904032141 80 105 0.0 0.0 0.00 0.00 0.00 88 1015.2
20260904031626 80 105 0.0 0.0 0.00 0.00 0.00 88 1015.2
20260904031127 80 105 0.0 0.0 0.00 0.00 0.00 87 1015.1
20260904030607 80 105 0.0 0.0 0.00 0.00 0.00 87 1015.1
20260904030020 81 105 0.0 0.0 0.00 0.00 0.00 87 1015.2
20260904025517 81 105 0.0 0.0 0.00 0.00 0.00 86 1015.2
20260904025014 81 105 0.0 0.0 0.00 0.00 0.00 86 1015.2
20260904024510 81 105 0.0 0.0 0.00 0.00 0.00 86 1015.2
20260904024000 81 105 0.0 0.0 0.00 0.00 0.00 86 1015.3
20260904022930 81 105 0.0 0.0 0.00 0.00 0.00 86 1015.3
20260904022428 81 105 0.0 0.0 0.00 0.00 0.00 85 1015.3
20260904021902 81 105 0.0 0.0 0.00 0.00 0.00 85 1015.2
20260904020914 82 105 0.0 0.0 0.00 0.00 0.00 84 1015.1
20260904020359 82 105 0.0 0.0 0.00 0.00 0.00 84 1015.1
20260904015828 82 105 0.0 0.0 0.00 0.00 0.00 84 1015.0
20260904015307 82 105 0.0 0.0 0.00 0.00 0.00 83 1015.0
20260904014808 82 105 0.0 0.0 0.00 0.00 0.00 82 1015.0
20260904014244 82 105 0.0 0.0 0.00 0.00 0.00 82 1014.9
20260904013738 83 105 0.0 0.0 0.00 0.00 0.00 82 1014.8
20260904012712 83 105 0.0 0.0 0.00 0.00 0.00 82 1014.8
20260904012209 83 105 0.0 0.0 0.00 0.00 0.00 81 1014.7
20260904011647 84 105 0.0 0.0 0.00 0.00 0.00 80 1014.6
20260904011121 84 105 0.0 0.0 0.00 0.00 0.00 78 1014.6
20260904010557 84 105 0.0 0.0 0.00 0.00 0.00 78 1014.5
20260904010034 85 105 0.0 0.0 0.00 0.00 0.00 78 1014.4
20260904003943 86 105 0.0 0.0 0.00 0.00 0.00 75 1014.3
20260904003441 86 105 0.0 0.0 0.00 0.00 0.00 74 1014.3
20260904002926 87 105 0.0 0.0 0.00 0.00 0.00 73 1014.2
20260904001905 87 105 0.0 0.0 0.00 0.00 0.00 73 1014.2
20260904001348 87 105 0.0 0.0 0.00 0.00 0.00 71 1014.1
20260904000828 88 105 0.0 0.0 0.00 0.00 0.00 71 1014.2
20260904000318 88 105 0.0 0.0 0.00 0.00 0.00 69 1014.2
20260903234245 89 105 0.0 0.0 0.00 0.00 0.00 68 1014.0
20260903233755 89 105 0.0 0.0 0.00 0.00 0.00 69 1014.0
20260903233227 89 105 0.0 0.0 0.00 0.00 0.00 69 1014.0
20260903232725 89 105 0.0 0.0 0.00 0.00 0.00 67 1014.1
20260903231150 90 329 0.0 0.0 0.00 0.00 0.00 68 1013.9
20260903230644 91 329 0.0 0.0 0.00 0.00 0.00 66 1013.9
20260903225137 91 329 0.0 0.0 0.00 0.00 0.00 64 1013.7
20260903224611 91 329 0.0 0.0 0.00 0.00 0.00 61 1013.7
20260903224109 92 329 0.0 0.0 0.00 0.00 0.00 61 1013.7
20260903223049 93 329 0.0 0.0 0.00 0.00 0.00 57 1013.7
20260903222520 93 329 0.0 0.0 0.00 0.00 0.00 57 1013.7
20260903222015 93 329 0.0 0.0 0.00 0.00 0.00 56 1013.7
20260903221512 93 329 0.0 2.0 0.00 0.00 0.00 55 1013.7
20260903215909 95 300 0.0 1.0 0.00 0.00 0.00 57 1013.5
20260903214835 95 191 0.0 2.0 0.00 0.00 0.00 50 1013.4
20260903214305 95 207 0.0 0.0 0.00 0.00 0.00 51 1013.4
20260903213804 95 111 0.0 0.0 0.00 0.00 0.00 52 1013.4
20260903213300 95 86 0.0 0.0 0.00 0.00 0.00 51 1013.4
20260903212748 96 340 0.0 0.0 0.00 0.00 0.00 51 1013.4
20260903212246 96 343 0.0 1.0 0.00 0.00 0.00 48 1013.4
20260903211721 96 344 0.0 0.0 0.00 0.00 0.00 51 1013.4
20260903211157 96 205 0.0 1.0 0.00 0.00 0.00 48 1013.4
20260903210125 96 288 0.0 1.0 0.00 0.00 0.00 49 1013.5
20260903205628 96 187 0.0 0.0 0.00 0.00 0.00 50 1013.7
20260903204048 95 329 0.0 1.0 0.00 0.00 0.00 50 1013.8
20260903203547 95 325 0.0 1.0 0.00 0.00 0.00 50 1013.8
20260903203048 95 192 0.0 2.0 0.00 0.00 0.00 49 1013.8
20260903202547 96 234 0.0 2.0 0.00 0.00 0.00 54 1013.9
20260903202019 96 205 0.0 7.0 0.00 0.00 0.00 50 1013.9
20260903201517 97 213 0.0 7.0 0.00 0.00 0.00 49 1013.9
20260903195928 97 229 0.0 6.0 0.00 0.00 0.00 48 1014.3
20260903195429 97 180 0.0 1.0 0.00 0.00 0.00 48 1014.3
20260903194927 97 191 0.0 1.0 0.00 0.00 0.00 47 1014.4
20260903194408 98 284 0.0 1.0 0.00 0.00 0.00 46 1014.6
20260903193910 98 149 0.0 1.0 0.00 0.00 0.00 46 1014.6
20260903193409 98 329 0.0 4.0 0.00 0.00 0.00 46 1014.7
20260903192910 98 68 0.0 4.0 0.00 0.00 0.00 46 1014.7
20260903191832 98 321 0.0 1.0 0.00 0.00 0.00 47 1014.8
20260903191308 98 171 0.0 2.0 0.00 0.00 0.00 48 1014.9
20260903190806 98 171 0.0 2.0 0.00 0.00 0.00 47 1014.9
20260903190303 98 28 0.0 1.0 0.00 0.00 0.00 47 1015.0
20260903185751 99 194 0.0 5.0 0.00 0.00 0.00 46 1015.0
20260903184735 99 200 0.0 6.0 0.00 0.00 0.00 47 1015.1
20260903184230 99 202 0.0 6.0 0.00 0.00 0.00 47 1015.1
20260903183728 98 289 0.0 0.0 0.00 0.00 0.00 48 1015.1
20260903183200 98 289 1.0 8.0 0.00 0.00 0.00 47 1015.1
20260903182658 98 289 1.0 8.0 0.00 0.00 0.00 49 1015.3
20260903182147 97 222 0.0 0.0 0.00 0.00 0.00 51 1015.4
20260903181645 97 221 0.0 4.0 0.00 0.00 0.00 51 1015.5
20260903180551 97 283 0.0 7.0 0.00 0.00 0.00 49 1015.6
20260903175523 97 187 0.0 6.0 0.00 0.00 0.00 49 1015.7
20260903175003 96 186 0.0 6.0 0.00 0.00 0.00 54 1015.8
20260903174500 95 194 0.0 2.0 0.00 0.00 0.00 57 1015.8
20260903173933 95 323 0.0 2.0 0.00 0.00 0.00 52 1015.9
20260903172908 95 215 0.0 0.0 0.00 0.00 0.00 53 1016.1
20260903172353 95 215 0.0 0.0 0.00 0.00 0.00 56 1016.1
20260903171849 95 215 0.0 0.0 0.00 0.00 0.00 54 1016.3
20260903171325 96 141 0.0 0.0 0.00 0.00 0.00 54 1016.4
20260903170820 96 141 0.0 0.0 0.00 0.00 0.00 54 1016.4
20260903170320 96 165 0.0 0.0 0.00 0.00 0.00 52 1016.4
20260903165817 96 176 0.0 1.0 0.00 0.00 0.00 52 1016.5
20260903165309 96 126 0.0 1.0 0.00 0.00 0.00 55 1016.6
20260903164757 96 194 0.0 0.0 0.00 0.00 0.00 55 1016.7
20260903164255 96 273 0.0 0.0 0.00 0.00 0.00 54 1016.7
20260903163237 96 153 0.0 0.0 0.00 0.00 0.00 54 1016.8
20260903162219 95 154 0.0 0.0 0.00 0.00 0.00 54 1016.9
20260903161719 95 109 0.0 1.0 0.00 0.00 0.00 55 1017.0
20260903161131 94 109 0.0 0.0 0.00 0.00 0.00 57 1017.1
20260903160629 94 109 0.0 0.0 0.00 0.00 0.00 57 1017.1
20260903160125 94 19 0.0 0.0 0.00 0.00 0.00 59 1017.1
20260903155549 94 17 0.0 0.0 0.00 0.00 0.00 58 1017.3
20260903155023 93 18 0.0 0.0 0.00 0.00 0.00 57 1017.3
20260903154520 93 306 0.0 0.0 0.00 0.00 0.00 58 1017.4
20260903154012 92 309 0.0 0.0 0.00 0.00 0.00 59 1017.3
20260903153510 92 309 0.0 0.0 0.00 0.00 0.00 61 1017.4
20260903152506 92 309 0.0 0.0 0.00 0.00 0.00 63 1017.4
20260903152017 92 309 0.0 0.0 0.00 0.00 0.00 61 1017.3
20260903151505 91 310 0.0 0.0 0.00 0.00 0.00 69 1017.3
20260903150432 90 310 0.0 0.0 0.00 0.00 0.00 73 1017.2
20260903145430 89 310 0.0 0.0 0.00 0.00 0.00 68 1017.2
20260903144928 89 309 0.0 0.0 0.00 0.00 0.00 73 1017.2
20260903144406 88 309 0.0 0.0 0.00 0.00 0.00 70 1017.1
20260903143834 88 309 0.0 0.0 0.00 0.00 0.00 71 1017.1
20260903143307 87 309 0.0 0.0 0.00 0.00 0.00 72 1017.1
20260903142803 86 312 0.0 0.0 0.00 0.00 0.00 75 1017.1
20260903142243 85 312 0.0 0.0 0.00 0.00 0.00 80 1017.1
20260903141742 84 312 0.0 0.0 0.00 0.00 0.00 83 1017.1
20260903141244 83 312 0.0 0.0 0.00 0.00 0.00 84 1017.1
20260903140701 82 312 0.0 0.0 0.00 0.00 0.00 86 1017.1
20260903135638 81 312 0.0 0.0 0.00 0.00 0.00 90 1017.1
20260903134634 79 312 0.0 0.0 0.00 0.00 0.00 94 1017.2
20260903134136 79 312 0.0 0.0 0.00 0.00 0.00 96 1017.2
20260903133554 78 312 0.0 0.0 0.00 0.00 0.00 97 1017.2
20260903133052 78 312 0.0 0.0 0.00 0.00 0.00 98 1017.2
20260903132531 78 312 0.0 0.0 0.00 0.00 0.00 98 1017.3
20260903132028 77 312 0.0 0.0 0.00 0.00 0.00 99 1017.3
20260903131526 77 312 0.0 0.0 0.00 0.00 0.00 99 1017.4
20260903131007 77 312 0.0 0.0 0.00 0.00 0.00 99 1017.3
20260903125941 76 312 0.0 0.0 0.00 0.00 0.00 100 1017.2
20260903125414 76 312 0.0 0.0 0.00 0.00 0.00 99 1017.2
20260903124911 76 312 0.0 0.0 0.00 0.00 0.00 99 1017.2
20260903124350 75 312 0.0 0.0 0.00 0.00 0.00 99 1017.1
20260903123834 75 312 0.0 0.0 0.00 0.00 0.00 99 1017.0
20260903123334 75 312 0.0 0.0 0.00 0.00 0.00 99 1017.2
20260903122245 75 312 0.0 0.0 0.00 0.00 0.00 99 1017.1
20260903121715 75 312 0.0 0.0 0.00 0.00 0.00 99 1017.0
20260903120134 75 312 0.0 0.0 0.00 0.00 0.00 99 1017.1
20260903115630 75 312 0.0 0.0 0.00 0.00 0.00 99 1017.1
20260903114555 75 312 0.0 0.0 0.00 0.00 0.00 99 1017.1
20260903114054 75 312 0.0 0.0 0.00 0.00 0.00 99 1017.0
20260903113553 75 312 0.0 0.0 0.00 0.00 0.00 99 1017.0
20260903113052 75 312 0.0 0.0 0.00 0.00 0.00 99 1016.9
20260903112549 75 312 0.0 0.0 0.00 0.00 0.00 99 1016.8
20260903111520 75 312 0.0 0.0 0.00 0.00 0.00 99 1016.6
20260903110952 75 312 0.0 0.0 0.00 0.00 0.00 99 1016.6
20260903110448 75 312 0.0 0.0 0.00 0.00 0.00 98 1016.5
20260903105930 75 312 0.0 0.0 0.00 0.00 0.00 98 1016.5
20260903105427 75 312 0.0 0.0 0.00 0.00 0.00 98 1016.5
20260903104913 75 312 0.0 0.0 0.00 0.00 0.00 98 1016.5
20260903104359 75 312 0.0 0.0 0.00 0.00 0.00 98 1016.4
20260903103313 75 312 0.0 0.0 0.00 0.00 0.00 98 1016.4
20260903102203 75 312 0.0 0.0 0.00 0.00 0.00 98 1016.4
20260903101153 75 312 0.0 0.0 0.00 0.00 0.00 98 1016.4
20260903100653 75 312 0.0 0.0 0.00 0.00 0.00 98 1016.4
20260903100136 75 312 0.0 0.0 0.00 0.00 0.00 98 1016.4
20260903095635 75 312 0.0 0.0 0.00 0.00 0.00 98 1016.3
20260903095134 75 312 0.0 0.0 0.00 0.00 0.00 98 1016.3
20260903094606 75 312 0.0 0.0 0.00 0.00 0.00 98 1016.3
20260903094103 75 312 0.0 0.0 0.00 0.00 0.00 98 1016.4
20260903093535 75 312 0.0 0.0 0.00 0.00 0.00 97 1016.4
20260903093032 75 312 0.0 0.0 0.00 0.00 0.00 97 1016.4
20260903092515 76 312 0.0 0.0 0.00 0.00 0.00 97 1016.3
20260903092011 76 312 0.0 0.0 0.00 0.00 0.00 97 1016.3
20260903091513 76 312 0.0 0.0 0.00 0.00 0.00 97 1016.2
20260903091006 76 312 0.0 0.0 0.00 0.00 0.00 97 1016.3
20260903090516 76 312 0.0 0.0 0.00 0.00 0.00 97 1016.2
20260903085948 76 312 0.0 0.0 0.00 0.00 0.00 97 1016.2
20260903085449 76 312 0.0 0.0 0.00 0.00 0.00 97 1016.3
20260903084923 76 312 0.0 0.0 0.00 0.00 0.00 97 1016.3
20260903083850 76 312 0.0 0.0 0.00 0.00 0.00 97 1016.3
20260903082333 76 312 0.0 0.0 0.00 0.00 0.00 97 1016.3
20260903081807 76 312 0.0 0.0 0.00 0.00 0.00 96 1016.3
20260903081240 76 312 0.0 0.0 0.00 0.00 0.00 96 1016.3
20260903080712 76 312 0.0 0.0 0.00 0.00 0.00 96 1016.3
20260903080207 76 312 0.0 0.0 0.00 0.00 0.00 96 1016.3
20260903075641 76 312 0.0 0.0 0.00 0.00 0.00 96 1016.2
20260903075117 76 312 0.0 0.0 0.00 0.00 0.00 96 1016.1
20260903074621 76 312 0.0 0.0 0.00 0.00 0.00 96 1016.1
20260903074059 76 312 0.0 0.0 0.00 0.00 0.00 96 1016.1
20260903073557 76 312 0.0 0.0 0.00 0.00 0.00 95 1016.2
20260903072539 77 312 0.0 0.0 0.00 0.00 0.00 95 1016.2
20260903072012 77 312 0.0 0.0 0.00 0.00 0.00 95 1016.2
20260903071455 77 312 0.0 0.0 0.00 0.00 0.00 95 1016.2
20260903070954 77 312 0.0 0.0 0.00 0.00 0.00 95 1016.3
20260903070453 77 312 0.0 0.0 0.00 0.00 0.00 95 1016.2
20260903065947 77 312 0.0 0.0 0.00 0.00 0.00 95 1016.2
20260903065446 77 312 0.0 0.0 0.00 0.00 0.00 95 1016.2
20260903064403 77 312 0.0 0.0 0.00 0.00 0.00 94 1016.3
20260903063905 77 312 0.0 0.0 0.00 0.00 0.00 94 1016.4
20260903063401 77 312 0.0 0.0 0.00 0.00 0.00 94 1016.4
20260903062915 77 312 0.0 0.0 0.00 0.00 0.00 94 1016.4
20260903061852 77 312 0.0 0.0 0.00 0.00 0.00 94 1016.5
20260903061335 77 312 0.0 0.0 0.00 0.00 0.00 94 1016.5
20260903060836 77 312 0.0 0.0 0.00 0.00 0.00 93 1016.5
20260903060335 77 312 0.0 0.0 0.00 0.00 0.00 93 1016.4
20260903055808 77 312 0.0 0.0 0.00 0.00 0.00 93 1016.4
20260903055306 77 312 0.0 0.0 0.00 0.00 0.00 93 1016.4
20260903054237 78 312 0.0 0.0 0.00 0.00 0.00 93 1016.4
20260903053714 78 312 0.0 0.0 0.00 0.00 0.00 92 1016.4
20260903053212 78 312 0.0 0.0 0.00 0.00 0.00 92 1016.4
20260903052657 78 312 0.0 0.0 0.00 0.00 0.00 92 1016.4
20260903052155 78 312 0.0 0.0 0.00 0.00 0.00 91 1016.4
20260903051706 78 312 0.0 0.0 0.00 0.00 0.00 91 1016.4
20260903050622 78 312 0.0 0.0 0.00 0.00 0.00 91 1016.4
20260903050112 78 312 0.0 0.0 0.00 0.00 0.00 91 1016.4
20260903045559 78 312 0.0 0.0 0.00 0.00 0.00 91 1016.5